CAPE
2189 2535 2768 2715 2634 2482 2421 2051 2010 1976 1921 1652 1632 1504 1362 1292 1147 953 971 1097 1155 1204 1267 1326 1378 1780 1982 1969 1887 1821 1718 1707 1706 1662 1719 1797 1803 1719 1735 1672 1605 1472 1646 1668 1702 1756 1757 1954 1723 1710 1849 1624 1724 1335 1665 1734 1688 1519 1467 1433 1344 1170 1063 938 874 677 406 312 298 446 639 543 191 101 83 68 75 84 34 32 244 173 114 121 113
2392 2561 2647 2585 2456 2505 2442 2048 1861 2116 1782 1371 1242 1605 1420 1216 1102 983 1054 1072 1158 1135 1327 1423 1651 1874 2002 2014 1991 1896 1880 1883 1890 1884 1822 1806 1764 1718 1700 1649 1576 1598 1803 1906 1734 1832 1922 1778 1837 1739 1769 1613 1572 1610 1570 1880 1833 1744 1276 1176 1110 914 720 568 455 401 366 368 341 392 434 447 149 14 78 63 33 56 98 152 223 124 105 161 153
2384 2488 2491 2497 2433 2440 2220 2061 2205 1896 1646 1574 1752 1599 1384 1219 1065 1005 1074 1140 1150 1167 1380 1476 1564 1764 1810 1916 1990 1962 1906 1925 2006 1960 1923 1837 1795 1734 1666 1689 1715 1714 1742 2076 1974 1851 1790 1748 1670 1776 1885 1867 1879 1743 1698 1662 1653 1157 1025 1032 779 421 314 299 323 312 272 320 311 144 143 196 243 37 3 76 65 86 158 155 128 172 89 132 137
2282 2406 2364 2449 2473 2318 2221 2025 1942 1848 1556 1466 1726 1574 1290 1028 1137 1158 1167 1166 1159 1359 1601 1812 1937 1870 1883 1931 1941 1962 1948 1947 1995 1926 1884 1794 1805 1860 1608 1626 1650 1744 1835 1980 1836 1883 1894 1881 1778 1893 1902 1802 1856 1781 1637 1668 1726 1325 931 639 320 262 229 222 191 182 290 510 626 652 828 285 90 108 169 168 246 297 302 541 593 522 288 186 198
2221 2323 2321 2174 2119 2287 2153 2057 1957 1946 1876 1816 1711 1496 1406 1314 1261 1223 1118 1085 1005 1466 1623 1788 1903 1860 1908 1951 1978 1971 1974 1973 1935 1874 1892 1859 1762 1898 1757 1748 1746 1752 1734 1797 1847 1925 1835 1850 1859 1980 1925 1827 1720 1589 1599 1648 1364 1234 1168 837 476 470 495 281 288 311 279 339 329 282 326 334 358 584 653 643 640 521 494 400 384 228 94 300 151
2218 2250 2180 2104 2083 2102 2050 2044 1730 2034 1846 1708 1472 1417 1477 1317 1152 1108 1133 1142 1278 1316 1574 1807 1933 1924 1992 1973 1952 1926 1945 1928 1941 1984 1959 1939 1889 1832 1861 1718 1664 1721 1877 1716 2148 1922 1750 1842 1919 1951 1722 1707 1626 1520 1528 1551 1496 1453 1294 1149 1168 1177 1020 937 178 248 304 332 241 313 368 436 453 392 254 439 392 219 202 250 285 282 260 262 286
2188 2191 2112 2024 1958 1922 2010 1947 1917 1728 1864 1543 1522 1512 1372 1297 1164 1172 1182 1214 1234 1416 1669 1825 1880 1953 1981 2010 2056 2044 2034 2051 2029 1958 1961 1911 1839 1835 1819 1884 1692 1804 1791 1771 1739 1756 1663 1636 1794 1759 1693 1722 1657 1581 1459 1291 1163 1012 962 950 985 900 818 855 189 201 236 138 219 217 216 230 238 189 249 315 375 408 403 402 406 407 518 388 342
2143 2057 2014 1961 1910 1908 1995 1934 1781 1832 1739 1622 1544 1457 1408 1301 1221 1230 1225 1242 1409 1581 1704 1828 1907 1975 2052 2075 2126 2133 2108 2120 2064 1968 1859 1886 1851 1835 1859 1801 1774 1732 1604 1407 1470 1618 1572 1492 1346 1240 1259 1238 1155 1034 1030 821 737 628 554 644 868 765 661 864 293 194 160 1 141 182 214 213 190 245 595 514 400 382 335 331 175 125 175 173 65
2016 2013 1956 1867 1866 2048 1937 1764 1802 1837 1688 1610 1511 1456 1351 1247 1190 1209 1208 1266 1509 1598 1661 1835 1969 2007 2037 2029 2127 2182 2122 2044 1914 1874 1858 1819 1860 1860 1847 1860 1736 1645 1545 1385 1373 1370 1198 958 878 893 746 654 668 640 550 547 558 627 710 791 789 1076 1213 1365 449 258 94 28 301 326 175 42 4 50 118 259 262 311 286 194 230 152 76 92 100
1884 1833 1839 1752 1782 1987 1866 1856 1842 1671 1596 1624 1506 1276 1080 1231 1170 1096 1037 1348 1510 1608 1616 1818 1952 2040 2109 2035 2135 2197 2119 1926 1837 1754 1682 1637 1654 1755 1756 1689 1635 1632 1624 1542 1468 1101 924 832 738 651 532 517 565 543 480 540 592 676 766 789 1011 1036 1510 1475 299 165 0 377 479 475 505 384 27 1 16 4 6 6 155 227 434 148 130 195 183
1842 1775 1770 1747 1826 1914 1854 1832 1804 1645 1552 1483 1364 1253 1109 1122 1077 981 999 1158 1384 1376 1549 1775 1861 1984 2039 2139 2222 2220 2129 2008 1872 1771 1783 1757 1665 1625 1591 1526 1538 1484 1538 1560 1571 1216 948 828 812 665 554 510 536 485 477 554 577 774 819 881 1164 740 1005 533 135 0 385 571 652 661 590 590 114 3 78 296 254 327 259 306 338 333 381 741 824
1720 1780 1742 1700 1897 1836 1831 1784 1687 1588 1466 1355 1304 1131 1102 1048 970 960 913 963 1231 1478 1539 1643 1955 2092 2340 2315 2328 2178 1962 1834 1728 1728 1694 1646 1626 1582 1582 1546 1489 1503 1440 1357 1382 1145 924 861 778 647 622 629 636 556 503 597 723 842 748 920 1375 501 468 331 39 151 579 654 646 621 604 579 399 52 45 243 339 249 339 218 206 260 166 147 178
1638 1725 1668 1654 1669 1787 1800 1737 1615 1475 1271 1231 1129 1066 1031 989 984 916 1015 1509 1554 1596 1698 1918 2125 2328 2336 2286 2214 2016 1899 1817 1749 1664 1591 1581 1507 1564 1554 1504 1407 1295 1132 885 849 793 780 835 769 736 670 693 679 681 701 768 837 946 838 970 1336 446 484 361 82 421 504 511 524 550 598 654 530 100 16 66 226 364 282 56 84 51 136 175 136
1628 1616 1563 1501 1572 1833 1722 1600 1511 1312 1210 1131 1111 1104 1032 958 993 1041 1403 1593 1651 1690 1795 1856 2058 2260 2302 2200 2047 1934 1882 1862 1772 1660 1608 1575 1507 1455 1450 1504 1420 1380 987 902 935 1016 1016 856 690 681 757 719 746 748 766 800 905 704 655 901 1461 521 554 531 488 428 454 489 549 610 644 586 533 538 292 324 255 229 184 242 113 98 118 133 133
1554 1472 1486 1551 1638 1639 1627 1497 1442 1317 1270 1262 1252 1245 1183 1188 1208 1313 1419 1609 1630 1745 1805 1742 1700 2024 2117 1953 1936 1918 1860 1826 1718 1588 1497 1506 1490 1470 1413 1302 1216 1192 1218 1155 1147 1020 927 689 700 732 713 723 731 750 746 767 647 645 666 1017 1641 625 581 435 433 466 481 548 589 585 514 449 464 192 130 56 22 223 207 146 84 230 258 236 219
1453 1490 1468 1468 1502 1550 1419 1336 1293 1291 1315 1288 1207 1245 1358 1400 1387 1425 1402 1423 1454 1597 1639 1609 1630 1900 1922 1915 1836 1830 1782 1714 1658 1648 1471 1358 1426 1399 1354 1396 1392 1290 1349 1333 1328 1003 902 744 696 759 769 789 724 669 724 752 582 610 805 1229 1681 747 588 448 442 480 514 511 467 368 314 374 394 296 391 415 344 245 201 263 280 195 150 122 91
1401 1315 1319 1328 1318 1222 1308 1257 1282 1248 1345 1311 1364 1356 1416 1461 1422 1386 1261 1267 1368 1362 1394 1337 1503 1667 1777 1750 1766 1760 1744 1619 1548 1575 1618 1416 1271 1275 1239 1190 1161 1301 1448 1361 1128 1072 926 907 770 726 768 812 789 777 739 592 680 859 1161 1557 1777 883 695 392 394 413 400 333 271 251 288 155 239 202 189 227 178 196 280 290 141 97 86 81 65
1221 1200 1184 1186 1214 1192 1081 1053 973 1087 1130 1290 1232 1308 1293 1349 1326 1248 1168 1182 1204 1314 1330 1494 1607 1712 1759 1750 1731 1733 1632 1612 1617 1582 1616 1466 1333 1264 1261 1253 1249 1357 1478 1393 1122 979 1027 906 933 806 793 713 882 729 770 727 942 966 1417 1466 1498 908 697 414 318 309 242 323 3 146 80 421 201 158 149 181 248 237 94 44 56 79 121 26 5
1106 1074 1056 1122 1122 1104 1090 1048 1008 1041 1025 978 1053 1148 1217 1252 1292 1180 1152 1089 1221 1275 1532 1634 1716 1790 1856 1880 1822 1777 1683 1680 1601 1594 1610 1578 1266 1187 1195 1272 1305 1272 1415 1346 1200 1203 1039 1015 882 861 767 740 739 855 695 958 1016 1134 1188 1274 1072 875 663 385 305 274 248 222 24 8 97 485 238 81 79 171 104 36 40 104 121 121 53 26 26
988 991 1031 1075 1077 1072 1072 1047 1036 1005 984 959 922 923 966 1149 1127 1160 1176 1209 1093 1282 1684 1736 1767 1699 1770 1728 1736 1747 1522 1351 1481 1460 1509 1506 1440 1321 1198 1187 1327 1370 1462 1570 1471 1302 1111 1124 1099 759 854 620 726 652 785 966 1210 1283 999 945 940 810 407 389 346 342 321 131 57 0 530 298 159 44 114 74 103 82 140 129 115 39 13 33 27
793 927 978 993 1014 1031 1045 1023 1010 996 1019 1020 967 965 1031 947 1148 1278 1238 1161 1285 1396 1510 1602 1741 1668 1725 1550 1364 1260 1239 1190 1163 1200 1340 1657 1549 1355 1343 1196 1242 1334 1490 1521 1563 1422 1434 1230 1161 888 878 916 789 737 698 761 836 1242 996 761 460 424 391 346 349 350 298 199 204 17 487 281 180 151 131 67 72 161 112 65 51 24 21 9 2
847 907 964 966 982 998 1010 1010 991 1012 1080 1116 1174 1255 1290 1288 1402 1346 1405 1388 1674 1612 1567 1629 1476 1508 1651 1373 1145 946 834 894 949 1574 1024 1372 1338 1340 1392 1266 1286 1283 1158 1433 1583 1542 1454 1397 1285 1126 1078 984 890 380 310 365 578 1011 942 857 414 408 411 376 397 367 299 251 113 230 268 332 186 137 115 74 55 61 46 54 40 6 2 3 4
721 892 922 986 967 984 999 974 976 1020 1074 1154 1255 1311 1331 1294 1324 1356 1421 1666 1787 1995 1684 1640 1524 1505 1524 1186 964 904 786 694 923 1095 1150 1181 1159 1414 1395 1389 1387 1444 1374 1349 1560 1617 1591 1529 1422 1324 1162 1087 770 244 293 313 333 367 433 356 387 393 385 402 395 333 320 246 12 386 268 247 173 146 105 66 68 56 45 13 1 1 4 1 0
762 830 862 947 945 968 994 952 970 1019 1054 1132 1267 1224 1175 1207 1203 1295 1358 1456 1545 1636 1551 1519 1466 1436 1408 1180 1036 982 987 864 1271 1731 1586 1146 962 1548 1403 1510 1552 1531 1443 1202 1501 1551 1705 1636 1552 1407 1189 859 492 7 282 283 250 287 302 288 335 380 376 362 316 360 304 291 166 398 288 284 200 164 120 85 50 40 15 11 10 9 5 3 4
861 866 865 898 942 941 978 994 1004 1052 1046 1149 1220 1138 1025 1042 1042 1082 1258 1323 1301 1269 1323 1373 1329 1306 1356 1308 1190 1050 950 1010 867 1077 1226 1304 961 1157 1174 1262 1331 1300 1346 1042 1247 1327 1518 1491 1398 1265 1115 818 468 166 67 242 195 207 241 257 266 304 328 348 353 340 294 275 183 452 318 238 199 197 183 116 60 27 16 11 4 4 2 4 3
958 837 826 904 947 939 958 1027 1069 1074 1070 1121 1164 1075 989 941 909 937 1071 1081 1140 958 942 1019 1014 997 1084 1309 1273 1191 1127 1027 992 998 1110 1197 1104 977 994 953 951 960 968 1081 919 964 1237 1353 1328 1138 916 774 580 428 58 114 0 24 383 534 437 270 322 357 390 353 314 278 223 452 343 235 204 186 190 116 68 35 18 0 2 3 6 4 4
886 920 981 930 983 1013 1035 1062 1107 1115 1106 1113 1064 1189 1021 949 905 901 873 869 940 930 764 764 812 784 742 880 892 840 848 930 1002 1017 1135 1208 1141 840 837 804 705 653 624 697 756 714 921 1122 1175 1114 948 866 724 546 219 20 210 517 586 482 477 487 367 316 404 422 374 354 255 504 359 301 287 252 228 152 94 54 19 8 6 6 3 2 2
1102 1094 1040 1041 1041 1106 1122 1119 1131 1134 1130 1096 1059 1224 1066 1002 970 1289 1030 807 828 834 812 771 762 782 778 713 665 613 684 825 987 1065 1138 1218 1212 1056 952 671 618 532 493 462 402 375 296 792 1033 1126 1136 1085 1014 949 846 678 500 643 554 534 536 547 505 357 330 349 391 394 281 432 380 482 434 352 237 174 159 56 34 15 6 5 6 3 3
1070 1164 1144 1091 1133 1194 1208 1196 1194 1193 1125 1085 1144 1172 1119 1076 1032 1028 1043 1189 950 828 800 746 812 755 744 804 793 749 649 686 860 1070 1061 1140 1204 1172 1062 903 956 920 821 695 504 200 2 296 794 910 954 957 904 888 919 956 965 934 789 665 618 536 479 424 344 254 297 348 294 370 429 448 470 494 239 200 138 59 38 20 7 5 5 4 4
1171 1091 1083 1147 1192 1248 1260 1279 1308 1352 1265 1138 1162 1202 1185 1158 1093 1048 1039 1207 942 807 809 731 664 657 664 658 631 663 692 852 979 1080 1124 1092 1078 1120 1118 1074 978 896 819 753 689 536 360 14 22 35 282 352 427 551 643 755 822 789 730 678 638 573 405 377 368 334 280 313 289 292 460 387 443 530 300 240 119 67 37 19 13 9 5 7 8
1359 1215 1184 1261 1247 1186 1182 1283 1344 1368 1339 1234 1145 1191 1206 1198 1148 1042 962 892 850 822 804 755 817 801 714 695 795 806 790 878 1001 1108 1131 1128 1118 1108 1100 1081 1063 992 886 801 673 645 568 469 334 22 90 325 361 447 576 662 736 842 786 690 643 602 486 364 366 358 311 297 274 270 298 497 532 708 411 348 175 85 38 31 23 16 18 9 10
1332 1307 1212 1250 1335 1302 1243 1194 1178 1246 1242 1207 1120 1005 1166 1197 1119 1073 1007 1023 1051 1073 1017 881 900 825 864 901 886 895 872 830 984 1110 1122 1132 1098 1060 1120 1158 1149 1026 936 922 824 715 667 615 533 466 365 260 273 394 505 548 583 716 760 698 741 570 476 364 359 333 316 258 173 251 251 321 515 607 440 438 235 122 51 43 21 22 26 8 18
1460 1471 1381 1404 1426 1452 1443 1373 1247 1229 1198 1147 1116 1203 1294 1303 1261 1200 1212 1203 1168 1232 1254 1146 1120 1095 1050 982 943 952 983 874 827 1022 1066 1045 1009 981 1030 1072 1085 1072 1078 1098 1060 969 798 712 629 557 517 395 62 314 391 507 523 550 572 620 633 613 384 309 341 318 296 300 289 250 257 248 256 424 440 490 333 272 81 68 52 44 31 9 7
1551 1582 1727 1664 1620 1580 1521 1402 1327 1310 1257 1203 1310 1366 1418 1446 1433 1419 1395 1345 1297 1268 1248 1204 1155 1089 1010 945 921 930 1004 960 854 916 987 987 865 798 839 941 1039 1095 1058 1079 1052 1006 910 781 758 691 742 595 534 472 391 145 246 421 445 422 349 198 356 310 269 300 259 232 86 237 231 288 280 234 284 455 296 239 114 151 81 150 82 12 3
1578 1566 1555 1603 1575 1534 1459 1393 1335 1287 1474 1391 1436 1522 1526 1523 1425 1431 1453 1405 1286 1199 1144 1050 943 857 803 843 895 966 982 997 954 923 921 864 790 725 657 754 939 1047 1101 1124 1101 1108 1073 927 866 837 794 726 685 675 636 593 534 428 215 248 339 0 14 279 337 20 141 226 222 196 250 62 160 226 192 176 227 153 107 116 186 181 88 41 12
1646 1639 1682 1720 1706 1620 1527 1466 1424 1440 1537 1501 1452 1465 1519 1537 1562 1578 1512 1449 1383 1141 1084 1105 1050 977 935 865 798 892 952 1011 1034 1029 1074 1064 993 945 862 788 908 1042 1100 1157 1139 1076 960 882 803 734 654 575 580 605 593 559 529 486 398 277 402 459 394 162 322 316 183 187 233 266 166 120 197 174 218 211 118 88 144 109 193 486 246 88 30
1563 1515 1649 1794 1771 1676 1534 1510 1479 1589 1636 1639 1529 1516 1527 1587 1592 1582 1541 1516 1238 1033 1076 1120 1112 1065 1025 984 899 819 997 1113 1145 1202 1166 1184 1130 1077 1021 997 929 924 999 1028 961 837 789 735 666 630 614 595 589 599 603 575 517 503 443 279 289 443 531 442 364 327 233 163 151 187 152 63 139 241 217 203 124 64 242 337 210 569 425 235 98
1360 1317 1368 1529 1612 1593 1489 1504 1558 1568 1497 1525 1550 1549 1557 1553 1609 1545 1371 1061 961 957 1013 1062 1083 1084 982 896 804 768 1007 1259 1362 1349 1303 1288 1312 1243 1194 1154 1139 1080 1020 957 950 956 947 912 832 788 723 686 671 663 701 724 671 623 568 438 188 115 459 564 486 264 171 149 119 142 193 119 109 127 174 119 110 85 60 255 395 656 470 222 121
1338 1412 1452 1480 1453 1442 1453 1324 1378 1382 1354 1401 1504 1450 1350 1357 1221 1183 1199 1112 1050 1082 1080 1056 1088 1040 837 694 703 720 697 922 1148 1276 1222 1225 1194 1225 1249 1317 1301 1249 1201 1173 1150 972 833 833 857 922 890 834 798 805 791 745 685 654 618 589 519 314 287 433 562 572 390 213 250 265 201 151 113 105 97 112 48 64 82 67 105 328 300 227 244
1354 1328 1318 1367 1543 1353 1231 1202 1255 1268 1291 1242 1272 1318 1334 1266 1164 1184 1183 1168 1144 1111 1144 1139 1007 831 776 792 798 772 769 733 637 859 1009 1190 1326 1431 1481 1444 1373 1249 1207 1178 1147 1106 1070 1018 921 1030 1044 922 774 725 748 758 734 727 704 678 609 519 434 389 416 537 604 490 289 194 292 316 201 128 114 100 76 76 75 100 66 221 284 156 201
1259 1270 1308 1349 1360 1267 1200 1186 1238 1243 1266 1237 1224 1194 1184 1267 1253 1237 1220 1262 1237 1182 1107 1101 1028 960 877 805 758 746 771 829 849 977 1102 1092 1143 1274 1336 1376 1257 1122 1136 1215 1236 1116 937 1001 1064 1077 982 876 777 703 691 659 639 600 529 366 380 499 457 415 415 351 391 463 415 335 290 277 227 179 179 112 68 66 84 119 92 151 363 122 100
1240 1237 1237 1296 1294 1280 1236 1136 1146 1220 1243 1219 1190 1202 1185 1248 1282 1320 1266 1230 1168 1028 908 796 754 740 743 737 775 732 701 723 847 950 969 1002 1021 1157 1239 1248 1184 1098 984 988 953 887 858 858 854 939 924 864 821 722 698 696 675 559 472 460 341 0 0 0 0 385 355 331 276 276 331 358 296 222 217 154 78 41 97 154 108 117 292 265 112
1370 1323 1166 1222 1251 1225 1205 1099 1043 1105 1194 1175 1154 1147 1144 1108 1203 1359 1344 1182 1086 994 932 899 812 802 773 777 794 795 863 932 846 748 696 656 742 925 1116 1222 1243 1253 1207 1056 970 882 834 851 868 825 809 777 754 716 762 697 717 637 602 453 19 11 0 0 0 0 216 346 362 357 349 368 386 311 253 255 151 40 91 166 136 122 212 293 200
1375 1319 1206 1206 1196 1168 1074 1057 1076 1130 1124 1163 1157 1096 1018 1048 1137 1157 1203 1110 1042 1023 989 972 925 881 855 830 812 745 691 750 760 783 858 856 870 925 974 1015 1048 1114 1141 1130 1017 985 820 728 744 688 684 681 683 792 740 824 692 666 575 511 411 245 96 0 0 0 0 0 0 35 280 365 434 415 302 264 88 54 81 206 140 148 181 228 244
1399 1270 1251 1198 1166 1114 1096 1068 928 943 986 973 928 940 955 1105 1115 1094 1091 1091 1008 1002 1095 982 861 836 841 850 787 679 615 654 701 678 751 787 830 859 903 946 952 934 882 825 764 735 710 716 734 719 693 610 629 661 648 657 766 764 599 471 376 297 290 126 88 0 0 0 0 186 254 348 413 448 418 300 194 50 77 194 222 197 180 178 156
1412 1406 1309 1264 1075 988 1220 1166 1022 950 928 930 860 848 854 851 979 1052 985 827 842 818 828 777 724 774 748 772 735 690 610 559 601 604 610 648 691 735 760 799 850 818 805 765 756 778 816 802 794 749 690 626 584 631 598 475 502 491 599 597 238 396 495 211 91 180 0 1 25 12 106 227 311 376 380 318 149 176 156 174 262 271 235 186 157
1049 1003 982 995 908 1016 1063 913 773 772 787 813 871 1028 1043 1065 997 962 903 887 866 878 816 708 716 798 788 766 680 640 607 579 532 561 589 617 647 669 701 764 829 849 865 862 855 796 719 684 644 690 720 678 638 661 551 465 332 278 291 190 415 510 568 378 278 178 190 40 0 100 64 87 211 258 295 277 186 98 245 307 302 307 316 324 273
1219 1078 939 888 966 1059 952 759 744 764 762 674 613 611 828 1012 1025 999 1021 1008 968 898 812 762 851 827 761 737 658 572 528 508 515 525 534 569 606 644 640 664 730 794 811 850 812 760 701 693 645 641 645 619 557 474 444 408 326 267 164 251 280 324 352 306 209 201 146 181 181 58 176 165 155 210 246 265 195 174 249 341 411 345 372 452 468
1086 1159 1091 992 1071 1050 961 769 654 621 592 603 590 611 607 625 684 751 870 972 949 872 812 756 738 706 646 628 602 513 480 481 475 473 462 448 498 555 556 567 544 623 753 822 829 744 702 688 716 744 748 704 631 588 515 462 349 258 152 115 108 159 171 170 186 130 150 100 94 160 130 68 150 215 344 387 377 277 228 303 380 441 507 558 540
1058 941 754 841 884 817 680 594 480 483 585 694 772 755 727 708 639 623 573 638 722 758 713 634 547 517 533 520 471 441 431 386 358 407 402 390 436 513 548 554 546 500 490 555 575 600 667 690 687 680 721 727 690 617 562 439 302 208 145 121 121 100 61 79 62 118 109 87 83 23 85 93 26 104 263 441 468 376 288 323 381 469 517 549 539
822 743 626 606 653 682 564 447 438 588 689 777 771 833 841 727 662 671 700 672 677 692 670 620 589 451 376 240 56 220 339 317 54 300 281 374 491 540 571 553 501 440 425 358 236 323 441 516 515 492 502 541 573 591 530 416 270 194 155 121 116 140 120 110 134 110 121 120 121 55 81 99 45 105 91 182 446 439 335 335 427 499 529 501 389
Wind_Speed
38 41 38 40 40 40 38 38 37 34 31 28 25 25 25 26 28 31 33 33 34 34 35 36 35 34 33 33 31 30 29 29 29 30 30 30 30 30 29 28 27 25 22 20 19 17 14 14 14 15 15 15 15 14 13 13 12 13 13 13 12 11 11 12 13 12 13 11 9 10 11 11 11 10 nan nan nan nan nan nan 6 4 4 9 14
41 38 37 37 40 39 37 37 36 32 29 27 26 25 26 27 29 31 32 33 33 34 35 35 35 33 33 32 31 30 29 28 29 29 30 31 31 30 28 28 27 25 22 19 18 18 16 15 13 14 14 14 14 13 12 12 13 13 12 12 12 12 11 11 12 12 12 10 10 11 12 12 12 nan nan nan nan nan nan 11 8 4 4 12 14
41 39 36 36 40 37 36 36 33 31 29 27 25 25 26 28 30 31 32 32 33 34 35 36 36 35 33 32 30 29 29 29 29 30 31 31 32 30 28 27 25 24 22 20 17 16 16 14 13 13 13 13 13 12 11 11 12 11 12 11 12 12 11 10 11 12 12 11 8 9 11 13 12 nan nan nan nan nan 11 10 10 7 nan 14 13
42 37 34 36 37 34 33 34 32 29 28 26 26 26 28 29 30 31 31 31 33 34 34 35 34 34 33 31 30 29 29 29 29 30 31 31 31 30 29 27 26 24 22 19 17 15 15 14 14 13 14 13 12 11 11 12 12 11 11 11 12 13 12 12 11 12 11 11 10 7 2 2 nan 13 13 13 13 13 12 13 13 13 14 13 14
40 36 33 31 29 28 31 33 31 28 26 26 26 27 28 29 30 30 30 31 33 34 34 35 34 34 33 31 29 29 29 28 28 29 30 30 30 30 29 27 25 24 23 20 17 15 14 14 14 13 13 13 11 11 11 12 12 11 8 9 10 11 12 10 10 10 11 9 8 4 0 3 5 12 13 14 14 13 12 13 13 14 nan 14 15
37 34 31 27 24 24 30 30 29 27 26 26 26 27 28 29 30 30 30 32 33 34 34 34 34 33 32 30 29 29 29 29 28 27 28 29 30 30 29 27 25 23 22 19 17 15 14 13 14 13 13 12 11 11 11 11 11 11 8 6 6 6 6 7 9 8 8 8 6 2 0 3 5 8 14 14 13 13 14 14 15 15 16 16 16
37 30 27 24 21 22 29 28 27 25 25 26 27 27 28 29 30 30 31 33 34 34 33 33 33 32 31 30 29 29 29 29 28 29 28 27 26 27 28 26 25 23 22 20 18 15 13 12 12 12 12 11 11 11 10 10 9 9 9 7 3 1 4 8 8 9 7 4 2 1 0 3 4 6 15 14 14 15 15 15 16 17 17 16 16
30 26 24 22 19 23 27 25 24 24 24 25 26 27 27 28 29 30 31 33 33 32 33 33 32 32 31 30 30 29 29 28 28 27 28 27 26 25 26 26 24 23 22 20 18 15 13 10 9 11 11 11 11 10 9 8 8 8 7 6 5 4 3 4 9 9 7 nan 2 2 2 3 3 6 15 15 16 16 16 17 16 17 17 18 nan
30 26 22 20 20 27 24 22 22 22 23 25 26 27 27 28 29 30 32 33 32 32 31 32 31 31 30 30 30 29 28 27 27 27 26 26 25 24 23 24 23 23 21 19 17 15 13 10 8 9 10 10 10 10 9 9 8 7 6 5 4 4 3 5 11 11 nan nan 3 3 5 nan nan nan 13 16 17 17 17 15 15 17 nan nan 18
28 25 21 19 19 26 23 21 20 22 23 25 26 26 27 29 29 31 32 32 32 30 30 30 29 29 29 29 29 28 27 27 27 26 25 25 24 23 22 22 23 24 23 22 20 17 15 12 10 8 9 9 10 10 10 10 9 8 7 7 7 7 9 15 15 9 nan 4 5 5 7 9 nan nan nan nan nan nan 16 15 14 14 15 18 19
28 23 20 19 21 23 21 20 20 22 23 25 26 26 27 27 28 29 31 32 31 29 28 28 28 28 28 29 28 26 25 26 26 25 24 23 23 22 21 20 21 23 23 23 21 19 16 14 11 9 9 8 9 10 10 11 10 10 10 10 10 9 14 17 12 nan 7 7 6 4 9 12 7 nan nan 18 18 16 16 18 18 18 18 19 21
27 22 19 18 22 21 19 19 20 21 23 24 24 25 26 27 28 28 29 30 29 27 26 26 25 27 27 28 27 26 25 25 25 24 23 23 23 23 22 21 21 22 22 21 21 19 17 14 13 11 9 8 9 9 10 11 11 11 11 12 10 10 12 14 nan 8 8 8 7 6 6 8 7 nan nan 18 18 18 18 17 17 17 17 19 19
25 21 18 17 16 18 18 19 20 21 22 23 24 25 25 27 28 28 27 25 27 26 26 25 24 25 26 26 27 27 25 24 25 24 23 23 23 24 23 22 21 21 21 19 19 19 18 15 14 12 10 9 9 10 10 11 11 11 12 12 11 13 12 13 nan 8 8 8 7 7 7 6 8 17 nan nan 18 18 17 nan nan nan 18 19 20
23 20 17 16 14 20 19 19 20 21 22 22 23 24 25 27 28 27 23 26 26 26 25 24 22 25 25 25 26 26 25 24 25 25 24 24 24 24 24 23 22 21 20 19 18 18 17 15 13 13 12 10 10 10 10 10 10 10 12 11 11 14 14 11 9 6 8 9 8 8 7 7 8 15 16 16 17 18 19 19 18 nan 18 20 20
22 21 18 15 14 15 22 20 20 20 20 20 21 21 23 25 25 23 23 25 25 25 24 23 22 24 25 26 27 27 26 25 25 25 25 25 24 24 24 23 22 21 20 19 18 17 16 14 13 13 12 10 10 10 10 10 10 10 10 9 9 15 14 8 7 6 8 8 7 8 8 7 13 14 15 nan nan 18 19 19 nan 18 19 20 21
21 20 19 16 15 15 15 20 21 21 21 21 21 22 22 24 23 22 23 25 25 25 24 23 22 22 24 25 26 25 25 26 25 24 23 24 24 24 24 24 23 22 20 20 17 16 14 13 12 13 12 10 9 9 10 10 10 10 9 7 6 15 14 10 8 7 8 8 6 7 7 8 13 12 14 15 17 17 18 19 19 19 19 20 nan
20 19 19 17 16 15 16 16 19 23 22 22 22 22 22 23 22 22 23 25 26 25 23 23 22 22 23 23 24 24 24 25 25 23 23 24 24 24 24 24 23 23 22 20 18 16 14 12 11 13 13 11 10 10 10 10 10 10 9 7 12 17 16 12 10 9 9 8 7 7 7 8 12 13 14 14 15 15 19 18 18 nan nan nan nan
19 18 18 17 16 17 16 16 17 18 17 21 22 22 22 22 22 22 23 24 25 25 23 23 22 22 22 23 23 23 23 23 24 23 24 23 23 23 23 22 22 22 22 21 19 16 14 11 10 11 12 11 11 12 11 11 11 10 10 10 18 18 16 14 9 9 9 9 nan 9 nan 11 13 12 13 14 15 16 nan nan nan nan 18 nan nan
19 19 16 16 17 17 17 17 17 17 17 16 15 17 21 21 21 22 23 24 22 23 23 23 23 23 22 22 23 22 21 22 21 20 20 20 20 21 21 18 18 20 21 21 19 17 14 11 10 10 11 11 11 12 12 13 13 12 14 13 18 18 16 11 8 9 9 11 nan nan nan 13 13 nan nan 14 13 nan nan 17 17 17 nan nan nan
18 18 16 15 16 17 16 17 16 16 14 13 13 14 18 21 22 21 22 22 23 22 23 23 24 23 22 21 21 18 17 16 17 15 16 17 18 15 17 17 16 17 18 19 18 15 14 12 9 8 9 10 11 10 10 13 14 14 16 16 16 17 11 9 9 10 12 12 nan nan 11 17 14 nan 13 nan 14 nan 16 16 17 nan nan nan nan
18 18 16 15 15 16 16 15 14 13 12 12 12 14 16 21 19 20 20 22 22 23 23 24 24 23 21 21 19 17 15 14 12 11 12 13 15 16 15 16 15 15 16 17 15 13 13 12 9 8 7 9 9 10 10 14 14 13 15 17 16 13 11 10 11 12 13 14 14 nan 16 16 15 15 14 nan nan 16 15 nan nan nan nan nan nan
19 18 15 14 15 14 14 13 12 12 11 12 13 14 15 18 16 16 16 18 21 22 20 19 22 19 22 21 19 18 16 13 11 10 12 12 11 12 12 13 13 13 12 13 13 11 10 11 10 7 7 9 11 11 10 15 15 14 13 15 14 13 12 12 12 13 14 14 15 14 20 16 15 15 15 nan nan nan nan nan nan nan nan nan nan
19 17 16 14 14 14 13 12 11 11 12 13 14 15 16 15 15 15 15 17 17 20 18 19 20 20 20 19 19 17 15 12 9 10 11 11 10 10 12 11 10 10 10 11 11 9 9 9 9 8 9 11 12 11 11 13 11 13 14 13 12 12 12 11 12 13 14 14 nan 18 21 18 17 15 14 nan nan nan nan nan nan nan nan nan nan
18 16 16 14 14 13 13 13 12 11 12 14 15 16 15 15 14 14 15 16 17 19 20 19 19 18 18 18 17 16 13 9 8 10 10 10 10 10 12 11 10 10 11 10 9 7 7 8 8 10 11 11 11 nan 11 13 12 11 13 14 13 13 12 10 11 13 15 14 15 20 21 18 18 17 16 nan nan nan nan nan nan nan nan nan nan
17 17 16 14 13 13 13 12 12 10 12 15 16 16 14 13 13 14 15 17 19 19 18 17 16 16 16 16 16 14 10 9 9 10 10 9 11 12 12 11 10 10 11 10 9 8 9 8 9 10 11 10 11 11 nan 12 14 13 13 15 14 12 11 10 10 12 14 14 14 19 21 20 18 16 15 16 nan nan nan nan nan nan nan nan nan
18 16 15 14 13 13 13 12 11 11 12 13 14 14 14 11 12 15 18 19 20 19 16 14 14 14 14 15 14 12 10 10 9 7 8 10 11 12 12 11 9 8 8 9 8 8 8 8 8 8 10 10 9 10 nan 11 nan nan 14 15 14 13 11 10 10 11 12 13 13 20 22 22 20 18 17 17 nan nan nan nan nan nan nan nan nan
17 16 15 14 13 12 12 12 11 11 11 12 12 11 11 11 13 16 20 20 19 17 14 13 12 12 12 12 12 11 11 9 6 5 6 8 10 11 11 10 9 8 7 7 6 6 8 8 8 8 10 11 9 9 11 nan 13 14 15 14 14 13 13 11 10 12 12 13 12 19 21 22 21 20 19 19 nan nan nan nan nan nan nan nan nan
19 18 15 13 12 11 10 11 11 11 10 11 11 11 11 12 14 17 18 19 18 15 13 12 11 11 10 9 9 10 9 7 4 3 4 7 7 7 8 8 9 8 7 7 6 6 7 7 7 7 10 12 11 9 11 12 12 11 12 13 13 13 14 14 12 13 13 13 13 16 19 20 20 21 21 19 19 nan nan nan nan nan nan nan nan
19 17 15 14 11 10 10 10 11 10 10 11 11 12 12 13 15 17 17 16 16 14 13 11 10 9 9 8 8 8 5 4 2 3 5 6 5 4 4 5 7 7 8 7 8 8 nan 7 6 6 9 11 12 11 12 12 12 11 10 11 12 13 14 16 16 15 15 14 14 14 18 19 21 21 21 20 20 nan nan nan nan nan nan nan nan
17 17 15 13 12 11 10 10 10 10 10 11 11 12 13 15 16 18 17 15 14 13 12 11 10 9 9 8 8 7 3 3 3 4 7 7 5 3 2 2 4 6 6 6 5 6 7 nan nan nan 9 11 12 13 16 15 13 13 12 10 12 12 14 16 17 17 16 16 15 14 16 19 20 20 21 21 20 nan nan nan nan nan nan nan nan
17 16 15 14 12 12 10 9 8 9 10 11 11 12 13 15 18 18 16 14 12 12 13 12 10 9 9 9 7 5 4 3 5 6 8 9 7 4 2 3 3 4 5 4 4 5 5 5 5 nan nan 8 9 11 14 14 14 13 14 12 12 14 14 16 18 18 17 16 16 16 15 17 17 19 21 20 21 nan nan nan nan nan nan nan nan
16 15 15 15 13 11 10 8 8 10 11 10 10 10 12 14 17 18 17 14 13 12 12 12 11 10 9 8 6 5 5 6 8 9 10 10 8 6 4 4 3 3 4 4 4 4 5 5 6 7 9 10 10 11 12 14 14 14 14 13 15 17 17 17 17 18 18 17 17 17 16 16 16 19 21 21 20 19 nan nan nan nan nan nan nan
16 16 16 15 12 11 10 9 9 11 11 11 10 10 11 14 16 17 16 14 13 12 11 11 11 11 10 9 8 7 7 8 9 9 9 10 9 8 7 7 7 6 6 5 7 7 6 6 6 8 8 10 nan 12 14 15 14 13 16 17 16 16 19 19 17 17 17 17 17 18 18 17 17 19 21 21 20 17 nan nan nan nan nan nan nan
18 17 17 15 13 12 11 10 10 10 11 12 11 11 10 12 14 17 16 14 13 12 10 10 10 11 11 10 9 8 8 8 8 8 9 10 10 9 9 9 10 10 10 10 9 9 8 7 8 9 9 12 12 13 14 13 14 15 16 19 17 16 17 18 18 18 18 19 nan 17 16 17 19 17 17 21 20 17 17 17 nan 19 nan nan nan
19 18 17 15 14 12 11 11 10 11 11 11 11 11 11 12 13 16 15 15 14 13 12 11 11 11 11 10 10 10 9 9 9 9 9 10 9 9 9 11 12 13 13 12 12 11 12 10 11 12 12 12 13 12 13 12 13 13 15 18 19 nan nan 19 22 nan 20 20 18 21 18 nan 15 17 17 18 20 18 17 14 15 18 nan nan nan
20 18 17 16 15 13 11 11 11 11 11 12 12 12 11 12 13 14 15 15 14 13 12 12 11 11 10 10 10 10 9 10 10 11 11 11 11 11 11 12 14 14 14 14 14 13 13 13 13 15 14 13 15 14 15 13 13 12 14 16 17 18 21 22 22 23 24 23 21 18 19 22 17 16 17 18 20 nan 17 15 15 16 18 nan nan
22 20 17 15 15 13 11 11 11 11 11 13 13 12 12 11 12 12 13 14 14 12 13 12 12 11 10 9 10 10 10 11 11 11 13 13 14 13 12 13 13 13 13 13 13 13 14 13 13 15 16 15 15 14 13 13 13 13 14 16 18 21 23 22 20 22 24 25 25 24 22 nan 23 18 17 18 18 nan 14 16 16 14 19 20 nan
24 23 19 16 16 14 12 12 12 11 12 13 13 12 11 12 11 11 10 11 11 13 12 12 10 10 10 9 10 11 12 12 12 13 13 14 14 14 13 12 13 14 14 15 13 14 14 14 13 14 15 17 16 16 14 13 14 14 15 16 19 20 22 26 21 21 23 24 25 25 24 24 24 23 20 16 16 nan nan 14 15 14 19 21 19
25 23 21 19 18 16 15 15 14 13 14 15 14 13 12 12 12 12 10 10 11 12 13 12 11 10 10 10 10 11 12 13 14 14 15 15 15 14 14 13 14 15 16 16 15 16 16 15 14 13 16 16 16 18 18 17 16 15 15 15 18 20 21 23 24 23 24 23 25 25 25 23 23 22 nan 20 nan nan nan nan 16 16 18 22 18
23 22 22 21 20 19 18 17 16 14 15 16 16 14 13 12 10 11 10 11 11 12 13 13 14 14 13 12 11 11 13 15 16 16 16 16 16 15 14 13 17 18 15 16 16 16 17 16 16 15 16 17 18 17 17 17 18 18 18 18 18 20 22 22 24 25 24 23 25 26 24 23 23 23 21 21 nan nan nan nan nan 17 18 20 19
24 24 24 24 23 21 23 22 19 19 19 17 15 15 14 12 14 13 12 11 11 10 11 12 13 13 13 14 14 14 14 15 17 18 19 17 17 17 16 14 18 18 15 14 15 14 14 15 15 17 16 16 19 21 18 18 16 17 19 18 19 21 22 23 23 24 25 25 25 26 25 24 23 23 22 24 nan nan nan 20 nan 18 19 21 19
22 24 25 24 24 24 25 22 21 21 20 18 17 17 15 13 13 13 14 13 13 12 10 10 11 13 14 14 14 15 17 17 18 18 18 18 17 18 19 19 18 19 18 17 16 15 16 17 18 16 18 16 18 24 23 24 20 18 16 17 19 nan nan nan nan 25 27 27 27 26 25 24 24 23 24 25 nan nan nan 24 22 20 20 21 21
23 24 23 25 25 25 24 23 23 22 21 19 18 18 16 17 17 15 16 14 14 14 14 14 13 13 15 16 16 16 16 17 18 18 18 18 19 19 21 23 21 19 20 20 19 17 18 17 17 17 16 19 18 22 25 26 19 22 22 21 nan nan nan nan nan nan 26 27 28 27 26 25 24 25 25 23 23 nan nan 26 23 21 20 22 22
26 26 24 25 24 25 25 24 24 24 23 22 21 21 20 19 19 19 17 17 16 14 15 15 15 15 15 17 17 18 19 19 19 19 19 19 19 19 21 24 23 24 23 22 22 20 21 20 21 20 20 16 18 20 24 25 24 23 20 24 22 25 nan nan nan nan nan nan nan nan 27 26 25 27 28 25 nan nan nan 27 23 21 20 22 23
28 26 23 24 24 26 25 25 26 25 24 23 23 22 23 22 20 20 21 19 18 17 17 17 16 16 17 18 17 19 20 20 20 20 20 19 19 18 20 22 24 25 26 24 22 21 22 22 22 21 22 21 17 19 23 25 24 26 23 22 22 23 22 23 nan nan nan nan nan 27 26 26 27 28 29 27 26 nan nan 26 24 23 22 23 23
27 23 22 24 26 27 27 27 27 26 24 24 24 23 23 23 22 23 23 22 20 19 19 17 16 17 17 16 18 20 21 23 23 22 21 20 20 19 20 23 25 25 25 25 23 23 23 23 23 22 21 22 19 17 17 23 23 22 23 25 23 19 19 26 nan 25 nan nan nan nan 28 27 28 28 28 29 28 28 30 27 26 25 24 24 24
25 22 24 27 29 29 27 27 27 26 25 25 25 24 24 23 24 24 23 23 21 21 19 19 19 18 19 19 19 20 22 23 23 23 23 22 21 21 22 24 25 26 27 27 25 24 23 23 23 23 22 21 22 18 17 18 22 23 23 23 22 21 22 26 25 26 26 nan nan nan nan nan 29 28 28 29 28 nan 31 31 28 26 25 25 25
25 26 28 30 31 30 29 28 28 28 26 25 26 25 25 23 24 25 23 23 23 20 20 19 19 19 21 21 21 22 21 22 23 23 24 24 24 23 23 24 25 25 27 27 26 24 24 24 24 22 20 21 21 19 17 20 21 21 26 23 23 23 22 23 25 26 27 26 31 nan 31 29 29 28 28 30 30 28 30 32 32 29 26 25 25
27 30 30 31 32 31 30 30 30 28 27 28 28 27 26 26 27 27 27 25 24 24 22 21 21 20 21 20 21 22 22 22 23 23 24 24 25 24 24 24 24 24 27 27 26 25 23 22 21 20 20 20 22 21 20 20 22 20 21 24 23 23 24 25 25 30 30 28 nan 32 32 nan 30 28 28 30 32 30 29 30 32 30 26 24 25
28 30 32 33 33 33 33 33 32 29 27 27 29 29 28 27 29 29 30 29 28 27 26 25 24 23 22 21 21 21 21 22 24 25 25 24 24 25 25 25 25 25 25 25 25 24 23 22 22 21 20 20 22 23 21 20 21 21 23 23 23 24 nan nan nan 31 32 nan nan nan nan nan nan 28 28 29 31 32 29 28 30 27 24 25 25
28 31 33 34 35 35 34 36 34 31 30 29 28 29 30 30 30 31 32 32 30 30 30 29 27 27 25 24 nan 21 22 22 nan 25 26 25 25 26 26 26 27 27 26 26 25 23 23 23 23 21 21 20 22 22 21 22 22 23 23 26 25 25 25 26 28 32 33 33 32 nan nan nan nan 29 nan 26 30 32 30 26 28 25 23 25 26
Wind_Direction
318 316 312 310 307 305 303 303 305 304 303 305 309 312 315 318 319 320 320 321 321 322 322 322 322 324 325 326 326 325 327 328 328 329 330 330 329 327 325 321 317 315 310 306 309 303 302 301 301 300 298 298 296 292 291 292 296 296 292 288 278 266 256 252 252 253 254 252 263 262 263 274 272 269 nan nan nan nan nan nan 222 205 216 252 257
316 312 308 308 307 305 302 302 304 304 305 308 310 315 317 319 319 320 321 322 323 323 323 322 323 324 325 326 326 325 327 329 330 331 332 333 331 329 325 321 319 316 312 312 309 310 311 307 303 299 297 292 286 285 288 293 296 294 287 275 268 261 256 252 252 256 256 259 258 260 269 274 275 nan nan nan nan nan nan 263 243 192 227 255 254
311 309 306 308 307 304 302 303 304 305 307 310 312 316 318 319 320 320 322 323 324 324 322 322 324 325 326 327 327 326 326 328 331 333 334 334 332 330 325 322 321 318 316 314 312 310 309 306 302 301 295 286 278 275 277 278 277 282 277 271 263 257 253 252 256 259 260 251 248 273 281 281 278 nan nan nan nan nan 262 262 255 236 nan 254 249
309 306 305 308 307 306 304 304 306 306 308 311 315 318 319 320 320 322 323 325 325 324 323 322 324 327 327 328 327 325 326 328 332 334 335 335 332 329 328 327 325 321 317 314 313 312 311 310 305 299 291 283 279 277 275 273 271 272 277 274 270 267 263 259 259 260 258 249 249 244 234 273 nan 294 293 287 281 274 273 273 269 262 259 255 256
308 304 305 306 307 306 305 306 307 306 309 313 317 320 319 319 321 323 325 326 325 324 324 324 326 327 327 327 326 325 326 329 333 334 337 336 332 330 329 330 327 325 321 318 315 312 309 306 304 296 288 282 279 273 270 270 270 271 263 275 284 274 257 257 260 260 264 253 236 217 285 312 320 296 292 283 279 275 271 267 263 261 nan 259 257
306 302 302 304 304 304 306 306 308 308 312 315 318 319 318 320 322 324 325 326 326 325 324 325 326 327 327 327 325 325 327 328 330 332 335 337 336 331 330 331 329 326 323 322 318 315 310 305 302 296 290 285 278 273 271 271 276 271 267 264 269 277 242 226 270 266 248 237 234 210 209 334 326 309 293 290 286 284 281 273 269 267 268 264 258
303 298 299 300 297 301 305 305 306 309 313 316 316 315 317 320 322 325 327 327 326 325 325 326 326 327 327 326 325 324 325 327 329 330 333 337 335 332 329 332 332 328 327 327 322 316 311 306 299 292 284 274 269 265 264 267 266 269 275 274 258 222 176 242 277 273 249 232 237 207 288 307 308 313 301 294 287 284 279 274 271 268 265 262 257
296 294 294 293 291 301 304 304 306 308 312 312 312 313 317 319 322 324 327 327 326 326 326 328 328 327 327 327 325 325 325 325 327 328 330 332 334 331 329 331 332 331 331 329 323 314 309 301 294 290 281 267 259 255 252 259 262 262 260 248 222 174 165 272 293 283 270 nan 267 257 284 291 306 316 299 292 287 282 278 277 273 271 269 264 nan
293 290 287 285 292 301 301 301 304 307 309 309 310 313 317 320 322 323 325 327 327 327 327 328 328 327 327 327 325 323 323 324 325 326 327 329 329 327 324 326 328 326 326 326 321 315 309 302 286 275 271 262 252 245 240 241 248 248 243 230 202 173 110 345 312 289 nan nan 270 273 291 nan nan nan 290 285 280 274 271 270 274 270 nan nan 268
289 285 283 284 290 301 299 299 302 305 307 308 309 314 317 319 321 322 325 327 328 329 328 329 328 327 327 327 324 322 323 323 323 323 325 327 328 328 327 330 331 330 329 329 328 322 314 303 289 271 258 252 249 247 245 240 237 234 221 211 209 226 295 312 307 294 nan 277 282 297 305 298 nan nan nan nan nan nan 277 279 279 278 271 268 268
289 286 280 281 292 294 295 297 299 303 305 306 308 312 316 318 320 322 325 328 329 328 329 329 329 327 326 325 322 319 319 319 320 321 323 323 324 325 323 325 329 331 328 326 325 323 317 308 296 284 273 261 254 251 247 241 233 225 216 207 225 252 286 297 293 nan 289 281 281 293 303 295 298 nan nan 288 286 287 282 278 276 277 275 271 267
291 281 278 281 293 292 294 295 296 297 300 303 307 311 315 319 321 324 326 329 328 327 329 331 331 329 326 324 320 318 319 318 317 317 319 321 322 323 324 323 325 326 325 322 323 324 321 312 301 290 281 276 268 258 249 240 232 224 217 213 233 271 282 288 nan 296 295 287 284 289 284 286 295 nan nan 292 291 286 280 277 274 272 270 265 267
287 280 277 278 282 292 288 286 288 291 296 302 308 311 315 319 322 325 326 325 326 325 328 330 330 329 326 324 321 319 318 316 314 314 316 318 320 323 324 322 321 323 325 324 322 323 321 314 303 294 284 275 268 259 249 239 231 225 219 219 242 289 282 281 nan 290 290 282 278 282 287 289 291 291 nan nan 290 287 282 nan nan nan 273 273 271
286 278 271 272 277 285 278 278 281 289 295 303 308 312 316 320 323 324 321 322 322 322 325 323 323 325 323 322 320 318 316 316 315 315 315 317 318 320 322 320 319 319 322 324 322 321 318 314 304 293 284 273 264 255 249 239 233 228 224 224 249 296 288 279 278 285 289 282 279 280 279 278 285 289 294 293 296 292 288 288 281 nan 282 278 279
282 277 271 268 270 273 280 277 282 287 293 299 305 309 314 318 320 319 319 320 319 319 320 320 320 319 319 319 318 317 318 320 318 317 316 317 319 318 319 320 318 317 318 319 321 318 315 311 300 288 281 273 263 254 246 240 230 224 223 223 253 302 292 280 281 285 286 283 285 289 289 290 292 296 297 nan nan 292 291 287 nan 287 285 284 281
278 277 273 268 269 270 271 285 285 285 289 296 303 307 309 313 316 317 317 318 318 319 319 319 317 315 316 317 319 319 320 321 319 316 317 317 317 317 317 318 318 316 315 316 317 317 310 305 297 283 273 264 255 250 243 235 226 221 214 222 252 308 302 294 292 283 281 284 287 291 295 287 293 299 299 298 299 295 292 290 291 284 283 283 nan
271 270 271 271 269 268 271 274 283 290 290 296 302 306 307 312 315 315 316 315 317 317 318 317 316 315 316 319 320 321 320 321 319 319 318 318 317 315 314 316 316 313 312 313 315 314 306 297 290 278 270 257 246 243 239 232 225 220 213 220 294 310 310 305 297 296 297 296 295 288 283 287 298 299 299 299 297 296 294 294 288 nan nan nan nan
269 270 272 274 273 271 272 275 279 282 290 298 305 306 309 311 314 312 313 315 315 317 316 315 315 317 320 321 321 322 323 324 325 324 318 316 316 313 312 313 314 312 311 312 313 311 303 289 285 277 268 257 243 239 241 241 236 226 217 272 299 302 307 303 302 304 302 298 nan 292 nan 296 297 298 299 296 296 300 nan nan nan nan 292 nan nan
268 269 265 272 273 266 265 269 275 281 286 291 297 308 312 313 311 311 310 315 315 315 314 315 318 321 322 324 324 323 327 327 326 326 318 317 319 315 314 314 312 311 308 309 312 309 299 289 278 274 265 257 246 239 241 247 249 240 239 265 291 298 299 292 298 302 299 296 nan nan nan 292 294 nan nan 297 299 nan nan 302 299 297 nan nan nan
264 265 266 267 269 266 265 272 278 283 285 290 297 306 317 315 313 310 313 315 317 316 317 319 321 320 321 319 319 319 319 323 323 323 325 322 319 320 316 315 313 308 307 311 312 306 298 285 278 273 261 251 248 242 237 246 251 254 261 263 287 290 279 280 286 293 296 296 nan nan 301 301 299 nan 297 nan 297 nan 300 303 304 nan nan nan nan
264 265 269 273 272 274 273 276 281 285 288 294 302 310 317 319 312 313 316 316 316 318 320 323 320 318 313 308 298 303 310 308 302 309 309 314 320 321 318 316 315 311 307 307 311 305 293 284 275 268 256 245 241 239 236 242 246 261 272 285 279 272 280 278 282 285 291 293 292 nan 307 305 308 302 298 nan nan 293 294 nan nan nan nan nan nan
270 271 267 272 279 280 281 281 282 288 295 301 309 313 311 308 298 303 306 314 319 319 318 318 315 312 309 304 305 308 313 307 301 292 301 308 311 320 314 310 311 309 309 311 310 303 289 281 270 261 243 235 231 242 239 243 246 265 274 288 282 286 285 290 287 290 292 293 293 299 307 309 309 305 304 nan nan nan nan nan nan nan nan nan nan
278 277 272 277 283 284 283 288 287 293 299 306 310 310 301 295 297 299 303 307 318 314 310 313 308 308 307 305 305 309 312 308 307 320 311 305 307 314 310 307 303 304 303 305 306 304 291 283 268 249 237 223 235 237 238 253 244 249 254 269 280 284 288 291 297 299 299 299 nan 306 308 310 307 303 301 nan nan nan nan nan nan nan nan nan nan
279 279 282 275 279 284 285 286 293 297 304 309 308 302 304 303 304 303 305 306 305 307 309 309 306 305 304 302 303 308 306 304 290 274 277 297 298 295 305 304 295 292 297 286 283 289 289 280 272 255 252 251 240 nan 235 256 256 249 253 269 278 286 289 298 302 304 307 304 302 313 310 307 305 308 307 nan nan nan nan nan nan nan nan nan nan
275 273 276 276 275 278 281 286 292 299 305 313 310 308 307 307 306 306 306 308 308 306 306 304 304 303 302 300 302 304 301 297 293 301 298 299 295 292 288 283 280 280 277 291 290 283 274 275 273 261 259 258 249 240 nan 247 263 255 254 268 274 276 283 285 289 298 306 306 306 317 310 302 303 306 306 301 nan nan nan nan nan nan nan nan nan
271 272 276 273 274 278 284 289 293 302 307 307 307 316 309 307 307 309 311 311 310 309 307 305 302 302 301 302 303 304 304 301 297 296 299 298 295 290 285 274 271 275 271 287 285 283 279 268 261 251 247 256 258 252 nan 247 nan nan 258 262 271 275 271 271 279 287 298 303 306 322 311 308 307 306 300 298 nan nan nan nan nan nan nan nan nan
272 271 275 277 278 278 282 288 297 300 304 301 301 299 299 302 305 312 318 316 313 311 308 306 305 303 303 305 307 308 310 309 305 302 301 295 295 290 284 280 276 273 273 283 283 288 287 275 261 243 230 230 237 245 245 nan 244 255 260 260 267 274 275 274 277 283 288 295 301 322 314 314 310 304 300 300 nan nan nan nan nan nan nan nan nan
271 279 283 283 282 282 280 287 294 296 298 298 296 291 290 296 312 323 321 324 318 316 311 309 308 309 311 310 306 304 310 314 324 307 317 304 307 290 282 281 284 283 287 289 300 298 298 299 282 260 237 229 225 231 241 249 249 245 250 258 264 273 279 282 284 287 291 292 291 311 318 313 307 302 301 300 302 nan nan nan nan nan nan nan nan
281 284 283 283 280 277 277 286 291 295 296 294 291 288 294 304 318 324 325 327 319 317 312 313 314 318 321 321 311 310 310 311 320 336 320 325 319 291 271 282 289 291 290 283 296 299 nan 289 286 272 259 246 242 239 250 254 259 256 245 244 260 270 276 283 288 292 294 296 297 299 321 314 306 302 302 299 301 nan nan nan nan nan nan nan nan
280 282 283 277 273 266 272 285 291 294 290 284 288 294 309 320 326 329 331 327 319 312 313 318 321 322 328 331 323 313 307 311 324 321 320 326 319 302 269 267 279 285 287 292 291 287 284 nan nan nan 268 261 255 253 255 259 261 269 266 253 251 264 274 281 287 292 293 295 296 293 319 315 307 299 302 302 302 nan nan nan nan nan nan nan nan
277 279 271 267 264 263 265 274 283 286 272 281 292 306 317 325 330 333 332 329 315 312 314 318 320 329 340 336 331 326 315 314 325 318 310 309 307 308 287 250 244 271 284 301 304 305 295 289 287 nan nan 282 275 272 267 266 267 267 274 267 244 254 264 272 277 283 290 293 294 295 302 319 307 300 301 301 300 nan nan nan nan nan nan nan nan
275 273 263 260 257 259 263 266 269 269 278 283 292 304 316 327 332 333 335 326 314 311 314 317 328 333 334 327 323 302 314 318 317 312 306 299 295 290 268 255 250 244 257 283 300 307 321 327 314 308 306 301 294 285 283 281 275 274 274 275 260 255 260 266 271 281 285 287 293 298 299 299 312 305 301 298 301 307 nan nan nan nan nan nan nan
262 268 267 265 260 258 259 260 262 268 283 290 293 299 315 327 331 332 332 325 318 317 320 322 322 321 319 311 302 305 307 314 309 308 304 295 285 272 265 263 265 269 272 279 288 298 308 316 318 311 307 304 nan 303 299 293 286 278 277 279 280 272 272 272 271 268 275 282 290 297 299 298 297 310 306 301 300 303 nan nan nan nan nan nan nan
266 261 263 259 251 248 253 257 261 271 283 286 287 292 308 321 328 329 333 328 324 322 325 320 318 316 312 309 308 308 309 304 298 295 296 286 273 270 268 266 271 280 285 289 291 296 302 300 305 297 301 300 305 309 302 299 299 292 286 282 282 283 279 275 275 272 266 263 nan 268 280 297 303 298 292 303 300 300 305 312 nan 316 nan nan nan
263 261 260 259 253 244 252 251 263 273 279 281 282 283 299 315 325 330 332 331 329 325 326 326 320 315 311 310 312 312 307 304 299 298 293 289 287 286 285 285 281 286 291 293 294 292 291 295 290 290 285 284 284 281 288 296 296 295 291 286 288 nan nan 278 269 nan 271 272 274 266 271 nan 283 292 287 284 294 305 309 316 306 311 nan nan nan
261 257 255 251 251 243 248 256 261 273 277 281 277 280 290 308 320 331 332 332 329 326 325 323 321 319 314 309 308 307 304 302 301 298 298 297 299 299 301 296 295 301 308 308 304 300 296 296 297 299 294 292 286 285 284 282 284 289 291 293 300 293 286 279 278 273 275 274 269 273 278 276 279 280 284 282 280 nan 312 312 307 309 307 nan nan
259 256 253 250 249 252 259 263 266 270 276 276 274 276 281 291 307 319 326 327 325 322 321 319 318 314 308 305 302 299 294 297 298 295 296 298 298 298 297 302 311 323 323 315 307 304 305 307 305 306 305 300 292 292 287 287 284 285 282 284 289 293 295 289 277 278 277 276 274 272 272 nan 277 280 277 278 277 nan 294 313 316 308 305 303 nan
254 252 251 251 252 255 263 268 265 265 268 277 275 271 280 289 296 308 312 316 317 316 313 309 310 308 303 302 296 292 288 294 299 297 295 296 295 295 297 311 324 324 312 303 305 305 311 311 309 304 302 298 295 297 298 294 290 284 282 284 286 294 296 298 302 294 289 286 284 281 270 257 267 281 279 270 269 nan nan 293 311 297 305 301 308
251 247 249 250 256 258 258 260 261 262 271 277 273 273 278 283 291 298 307 317 317 318 319 315 311 308 309 310 304 297 292 287 288 292 296 298 298 298 304 322 320 305 297 302 312 314 314 312 312 304 298 300 301 300 304 302 299 292 286 286 288 296 297 304 304 305 297 295 290 286 276 267 263 270 nan 274 nan nan nan nan 275 277 286 303 305
250 250 249 250 255 257 260 259 257 262 270 271 274 271 276 282 287 291 300 312 318 316 317 321 319 318 317 312 303 295 291 288 286 287 289 296 300 302 312 318 294 285 292 307 311 312 315 318 319 317 311 307 305 302 302 302 302 303 300 297 298 293 296 298 301 302 299 296 290 286 283 271 265 263 266 272 nan nan nan nan nan 272 276 294 306
248 249 248 248 251 260 260 256 256 259 263 265 268 274 275 274 286 292 301 313 312 311 310 312 313 317 314 311 309 303 294 286 284 285 287 293 299 302 307 300 290 295 300 301 293 293 299 305 304 304 308 309 306 306 304 304 300 295 296 301 300 300 299 301 302 299 297 297 293 292 285 275 270 271 270 268 nan nan nan 264 nan 268 274 277 288
248 251 250 251 254 256 258 257 256 258 259 263 266 272 275 281 285 289 295 303 304 302 302 301 304 307 309 309 304 301 297 291 287 288 292 296 298 301 300 294 293 296 298 297 297 293 290 293 296 295 298 304 300 301 301 297 295 294 284 284 292 nan nan nan nan 300 298 296 297 301 297 288 281 282 276 268 nan nan nan 266 264 268 271 274 276
247 250 251 254 254 256 258 258 258 259 259 260 265 266 271 272 281 286 293 297 305 310 316 320 317 312 311 311 309 304 298 292 289 289 292 294 296 297 297 297 299 299 300 301 300 300 297 296 295 294 288 293 294 294 299 305 299 292 289 287 nan nan nan nan nan nan 298 300 297 300 300 297 297 293 287 276 266 nan nan 267 264 268 269 270 272
243 246 248 253 255 256 256 258 260 259 257 255 257 259 264 270 275 281 288 292 293 300 306 311 310 306 297 307 306 304 301 300 297 295 293 291 291 295 295 297 301 304 306 305 305 303 300 299 300 301 300 295 297 295 304 306 305 296 293 300 292 294 nan nan nan nan nan nan nan nan 294 297 297 291 284 285 nan nan nan 268 264 265 267 269 269
243 245 246 251 256 255 256 258 258 258 258 258 258 260 262 263 269 278 278 279 286 281 281 278 283 289 288 287 289 299 298 297 297 295 292 290 290 291 292 296 299 304 306 306 304 302 300 302 304 305 305 305 302 296 299 305 309 309 309 296 294 298 301 290 nan nan nan nan nan 295 294 293 292 291 288 286 278 nan nan 267 260 261 265 267 268
244 247 253 255 257 256 255 256 258 257 257 258 260 264 266 268 267 269 271 277 278 276 277 280 280 280 283 295 288 286 291 293 294 295 295 293 292 292 294 295 296 298 301 302 299 296 298 299 302 303 303 303 302 296 296 297 305 308 314 311 310 307 294 284 nan 280 nan nan nan nan 291 291 288 287 288 287 284 274 268 262 256 259 263 264 265
253 257 260 260 261 262 260 260 260 260 259 259 260 265 265 268 269 271 275 278 282 287 289 288 286 288 292 285 284 282 282 282 283 287 289 291 292 291 292 294 295 298 299 299 300 301 300 301 299 300 302 301 301 305 307 301 300 308 310 311 314 311 304 293 294 281 280 nan nan nan nan nan 286 287 287 288 283 nan 267 259 252 255 258 258 261
265 265 264 263 263 263 262 262 262 262 262 262 261 262 266 264 265 266 269 271 274 275 273 275 281 285 284 282 285 281 280 281 281 282 285 285 286 286 289 294 296 298 298 301 302 302 299 297 298 300 302 303 305 309 309 305 306 304 306 312 315 316 312 311 307 298 287 279 279 nan 279 280 280 282 283 284 283 280 274 262 250 251 254 255 258
262 263 265 266 266 265 265 264 263 263 263 264 265 263 265 267 268 269 269 270 271 272 272 272 271 271 272 275 277 280 281 283 283 282 282 281 284 286 287 289 295 296 298 300 300 299 298 294 292 295 299 301 303 305 307 307 307 308 304 306 308 308 306 308 308 304 297 287 nan 281 279 nan 273 274 275 276 279 281 281 267 250 249 253 255 257
261 265 265 265 265 265 262 260 256 256 257 260 266 268 268 269 270 271 272 271 271 272 272 268 267 266 266 266 271 275 278 281 282 283 281 280 283 285 285 286 289 291 293 295 295 295 295 293 294 294 297 301 301 304 305 302 303 304 308 306 306 304 nan nan nan 302 300 nan nan nan nan nan nan 274 274 277 281 283 285 268 246 246 257 257 257
253 255 258 260 261 261 262 257 254 255 256 258 262 268 271 272 273 274 274 273 273 273 272 270 270 267 266 265 nan 273 277 279 nan 281 281 282 283 284 284 284 285 284 285 283 285 288 289 287 287 288 291 295 296 300 305 306 304 304 308 306 307 309 307 306 304 301 299 295 291 nan nan nan nan 269 nan 281 280 282 287 269 243 244 258 258 257